�������l�o���
Date,Time,MP-1(��Sv/h),MP-2(��Sv/h),MP-3(��Sv/h),MP-4(��Sv/h),MP-5(��Sv/h),MP-6(��Sv/h),MP-7(��Sv/h),MP-8(��Sv/h),����,����(m/s),���J
2022/10/14,00:00,0.563,0.813,0.522,1.017,0.710,0.335,0.583,0.551,�k�k��,3.7,��
2022/10/14,00:10,0.564,0.811,0.521,1.017,0.710,0.333,0.582,0.551,�k�k��,4.1,��
2022/10/14,00:20,0.562,0.814,0.522,1.017,0.711,0.334,0.582,0.552,�k�k��,5.2,��
2022/10/14,00:30,0.563,0.812,0.523,1.015,0.710,0.335,0.582,0.552,�k�k��,4.5,��
2022/10/14,00:40,0.564,0.813,0.522,1.018,0.712,0.335,0.581,0.553,�k�k��,5.7,��
2022/10/14,00:50,0.563,0.814,0.521,1.018,0.711,0.335,0.580,0.552,�k�k��,5.6,��
2022/10/14,01:00,0.564,0.814,0.520,1.016,0.710,0.335,0.582,0.552,�k�k��,6.2,��
2022/10/14,01:10,0.564,0.815,0.522,1.017,0.709,0.334,0.582,0.551,�k�k��,5.5,��
2022/10/14,01:20,0.565,0.814,0.523,1.018,0.713,0.335,0.582,0.553,�k�k��,6.5,��
2022/10/14,01:30,0.563,0.812,0.521,1.018,0.711,0.335,0.581,0.552,�k�k��,6.7,��
2022/10/14,01:40,0.564,0.815,0.522,1.016,0.711,0.334,0.581,0.553,�k�k��,5.4,��
2022/10/14,01:50,0.563,0.814,0.521,1.017,0.710,0.334,0.581,0.551,�k�k��,6.3,��
2022/10/14,02:00,0.562,0.815,0.522,1.016,0.712,0.335,0.582,0.553,�k�k��,7.0,��
2022/10/14,02:10,0.565,0.811,0.524,1.017,0.714,0.333,0.581,0.552,�k�k��,7.2,��
2022/10/14,02:20,0.564,0.815,0.523,1.017,0.712,0.333,0.581,0.552,�k�k��,5.8,��
2022/10/14,02:30,0.564,0.813,0.523,1.016,0.713,0.333,0.580,0.552,�k�k��,5.6,��
2022/10/14,02:40,0.564,0.812,0.522,1.018,0.710,0.334,0.584,0.552,�k�k��,6.3,��
2022/10/14,02:50,0.564,0.815,0.523,1.015,0.711,0.334,0.581,0.554,�k�k��,6.2,��
2022/10/14,03:00,0.562,0.814,0.521,1.016,0.711,0.333,0.583,0.553,�k�k��,6.5,��
2022/10/14,03:10,0.564,0.812,0.522,1.016,0.711,0.334,0.579,0.552,�k�k��,6.1,��
2022/10/14,03:20,0.563,0.816,0.523,1.017,0.712,0.334,0.583,0.552,�k�k��,7.3,��
2022/10/14,03:30,0.565,0.814,0.522,1.015,0.712,0.334,0.582,0.552,�k�k��,7.6,��
2022/10/14,03:40,0.565,0.813,0.522,1.017,0.710,0.335,0.582,0.551,�k�k��,6.6,��
2022/10/14,03:50,0.564,0.815,0.522,1.018,0.712,0.334,0.582,0.554,�k�k��,7.2,��
2022/10/14,04:00,0.564,0.815,0.524,1.018,0.712,0.334,0.581,0.552,�k�k��,6.0,��
2022/10/14,04:10,0.564,0.815,0.523,1.015,0.711,0.334,0.580,0.553,�k�k��,6.6,��
2022/10/14,04:20,0.564,0.815,0.522,1.017,0.712,0.335,0.582,0.553,�k�k��,6.2,��
2022/10/14,04:30,0.567,0.813,0.524,1.016,0.711,0.335,0.581,0.553,�k�k��,6.7,��
2022/10/14,04:40,0.566,0.813,0.524,1.019,0.711,0.335,0.582,0.553,�k�k��,6.6,��
2022/10/14,04:50,0.564,0.814,0.522,1.016,0.712,0.334,0.581,0.553,�k�k��,7.7,��
2022/10/14,05:00,0.564,0.815,0.522,1.017,0.712,0.334,0.580,0.553,�k�k��,6.7,��
2022/10/14,05:10,0.564,0.814,0.522,1.018,0.711,0.335,0.580,0.553,�k�k��,7.5,��
2022/10/14,05:20,0.565,0.814,0.523,1.017,0.711,0.334,0.582,0.551,�k�k��,6.9,��
2022/10/14,05:30,0.564,0.814,0.524,1.016,0.712,0.333,0.580,0.553,�k�k��,6.9,��
2022/10/14,05:40,0.564,0.813,0.522,1.017,0.710,0.335,0.581,0.553,�k�k��,6.8,��
2022/10/14,05:50,0.564,0.815,0.523,1.019,0.710,0.334,0.581,0.552,�k�k��,5.9,��
2022/10/14,06:00,0.565,0.815,0.523,1.018,0.711,0.334,0.580,0.553,�k�k��,6.5,��
2022/10/14,06:10,0.563,0.814,0.524,1.017,0.710,0.333,0.580,0.552,�k�k��,6.6,��
2022/10/14,06:20,0.562,0.814,0.522,1.016,0.711,0.336,0.581,0.553,�k�k��,6.6,��
2022/10/14,06:30,0.563,0.814,0.521,1.017,0.710,0.334,0.580,0.553,�k�k��,6.9,��
2022/10/14,06:40,0.564,0.815,0.522,1.018,0.712,0.334,0.582,0.551,�k�k��,6.7,��
2022/10/14,06:50,0.566,0.814,0.521,1.017,0.712,0.335,0.579,0.552,�k�k��,6.0,��
2022/10/14,07:00,0.564,0.816,0.522,1.017,0.710,0.335,0.583,0.552,�k�k��,5.6,��
2022/10/14,07:10,0.564,0.814,0.523,1.015,0.712,0.335,0.581,0.553,�k�k��,5.7,��
2022/10/14,07:20,0.562,0.812,0.522,1.017,0.713,0.336,0.581,0.551,�k�k��,5.8,��
2022/10/14,07:30,0.565,0.814,0.524,1.021,0.712,0.335,0.581,0.551,�k�k��,6.0,��
2022/10/14,07:40,0.565,0.815,0.524,1.016,0.714,0.335,0.579,0.552,�k�k��,5.1,��
2022/10/14,07:50,0.564,0.813,0.523,1.019,0.713,0.336,0.580,0.554,�k�k��,5.4,��
2022/10/14,08:00,0.566,0.814,0.524,1.017,0.712,0.334,0.581,0.551,�k�k��,5.4,��
2022/10/14,08:10,0.564,0.814,0.524,1.019,0.711,0.332,0.580,0.551,�k�k��,5.5,��
2022/10/14,08:20,0.566,0.809,0.524,1.018,0.710,0.334,0.581,0.552,�k�k��,5.9,��
2022/10/14,08:30,0.565,0.810,0.523,1.018,0.712,0.335,0.581,0.553,�k�k��,5.1,��
2022/10/14,08:40,0.564,0.809,0.525,1.018,0.712,0.333,0.581,0.552,�k�k��,4.8,��
2022/10/14,08:50,0.564,0.810,0.522,1.020,0.710,0.334,0.580,0.551,�k�k��,4.8,��
2022/10/14,09:00,0.562,0.806,0.524,1.018,0.710,0.335,0.580,0.551,�k�k��,4.9,��
2022/10/14,09:10,0.564,0.811,0.523,1.017,0.711,0.334,0.580,0.552,�k�k��,4.2,��
2022/10/14,09:20,0.565,0.809,0.523,1.020,0.710,0.333,0.580,0.552,�k�k��,5.4,��
2022/10/14,09:30,0.564,0.812,0.523,1.019,0.712,0.334,0.580,0.549,�k�k��,5.4,��
2022/10/14,09:40,0.565,0.812,0.521,1.019,0.712,0.333,0.582,0.551,�k�k��,5.2,��
2022/10/14,09:50,0.567,0.810,0.521,1.017,0.712,0.335,0.581,0.551,�k�k��,5.0,��
2022/10/14,10:00,0.563,0.810,0.521,1.017,0.712,0.333,0.582,0.551,�k�k��,5.2,��
2022/10/14,10:10,0.563,0.810,0.520,1.019,0.711,0.332,0.582,0.550,�k�k��,5.5,�L
2022/10/14,10:20,0.562,0.808,0.522,1.018,0.711,0.333,0.581,0.550,�k,4.5,�L
2022/10/14,10:30,0.564,0.809,0.522,1.018,0.711,0.333,0.582,0.551,�k,4.9,��
2022/10/14,10:40,0.565,0.809,0.521,-,0.709,0.332,0.581,0.551,�k�k��,5.8,��
2022/10/14,10:50,0.561,0.811,0.523,-,0.710,0.334,0.581,0.551,�k,6.1,��
2022/10/14,11:00,0.563,0.809,0.520,-,0.713,0.334,0.582,0.550,�k�k��,5.9,��
2022/10/14,11:10,0.563,0.809,0.520,-,0.710,0.334,0.583,0.550,�k,5.4,�L
2022/10/14,11:20,0.565,0.811,0.522,-,0.710,0.335,0.582,0.550,�k�k��,5.2,�L
2022/10/14,11:30,0.564,0.810,0.521,-,0.710,0.333,0.580,0.550,�k�k��,5.5,�L
2022/10/14,11:40,0.563,0.811,0.521,-,0.711,0.333,0.583,0.550,�k�k��,5.6,��
2022/10/14,11:50,0.564,0.811,0.523,-,0.710,0.334,0.584,0.549,�k�k��,5.5,��
2022/10/14,12:00,0.565,0.812,0.521,-,0.710,0.334,0.581,0.550,�k�k��,5.9,��
2022/10/14,12:10,0.564,0.814,0.522,-,0.710,0.335,0.581,0.551,�k,5.6,�L
2022/10/14,12:20,0.564,0.814,0.522,-,0.711,0.334,0.582,0.550,�k,5.9,��
2022/10/14,12:30,0.564,0.814,0.523,-,0.711,0.334,0.583,0.550,�k�k��,5.9,��
2022/10/14,12:40,0.564,0.814,0.521,-,0.711,0.333,0.582,0.550,�k,5.5,��
2022/10/14,12:50,0.566,0.813,0.523,-,0.712,0.333,0.582,0.549,�k,6.0,��
2022/10/14,13:00,0.565,0.815,0.522,-,0.709,0.334,0.582,0.550,�k,5.8,��
2022/10/14,13:10,0.565,0.813,0.522,1.020,0.711,0.333,0.582,0.550,�k,5.3,��
2022/10/14,13:20,0.564,0.812,0.521,1.023,0.713,0.333,0.582,0.551,�k,4.3,�L
2022/10/14,13:30,0.563,0.809,0.519,1.022,0.711,0.334,0.582,0.552,�k,5.6,�L
2022/10/14,13:40,0.565,0.810,0.523,1.020,0.711,0.333,0.583,0.552,�k,6.1,��
2022/10/14,13:50,0.565,0.811,0.523,1.022,0.710,0.334,0.583,0.551,�k,4.1,��
2022/10/14,14:00,0.564,0.812,0.522,1.023,0.710,0.335,0.581,0.551,�k,4.3,��
2022/10/14,14:10,0.566,0.811,0.522,1.021,0.713,0.334,0.584,0.552,�k,5.0,��
2022/10/14,14:20,0.565,0.812,0.523,1.022,0.709,0.335,0.583,0.551,�k,6.1,��
2022/10/14,14:30,0.565,0.811,0.522,1.021,0.713,0.334,0.583,0.552,�k,5.1,��
2022/10/14,14:40,0.566,0.814,0.523,1.022,0.711,0.334,0.583,0.552,�k,4.8,��
2022/10/14,14:50,0.565,0.812,0.523,1.020,0.712,0.334,0.582,0.551,�k,5.1,��
2022/10/14,15:00,0.564,0.812,0.522,1.022,0.711,0.334,0.584,0.552,�k,4.2,��
2022/10/14,15:10,0.565,0.813,0.522,1.021,0.711,0.335,0.584,0.552,�k,4.2,��
2022/10/14,15:20,0.564,0.814,0.521,1.021,0.712,0.334,0.584,0.551,�k,3.7,��
2022/10/14,15:30,0.564,0.811,0.522,1.019,0.713,0.336,0.583,0.551,�k,3.6,��
2022/10/14,15:40,0.564,0.813,0.524,1.021,0.712,0.333,0.583,0.551,�k,3.4,��
2022/10/14,15:50,0.565,0.815,0.523,1.021,0.712,0.334,0.583,0.549,�k,4.0,��
2022/10/14,16:00,0.566,0.816,0.523,1.022,0.712,0.333,0.582,0.551,�k,3.3,��
2022/10/14,16:10,0.564,0.815,0.526,1.023,0.711,0.335,0.582,0.551,�k,3.6,��
2022/10/14,16:20,0.563,0.818,0.525,1.023,0.713,0.335,0.582,0.552,�k,3.6,��
2022/10/14,16:30,0.567,0.816,0.524,1.024,0.714,0.334,0.583,0.552,�k,4.5,��
2022/10/14,16:40,0.565,0.817,0.525,1.020,0.714,0.334,0.582,0.552,�k,4.1,��
2022/10/14,16:50,0.564,0.814,0.523,1.025,0.713,0.334,0.583,0.551,�k,4.0,��
2022/10/14,17:00,0.567,0.817,0.524,1.021,0.714,0.336,0.582,0.552,�k,4.6,��
2022/10/14,17:10,0.566,0.817,0.524,1.022,0.716,0.333,0.582,0.553,�k,4.7,��
2022/10/14,17:20,0.566,0.818,0.525,1.023,0.716,0.335,0.581,0.553,�k,5.4,��
2022/10/14,17:30,0.567,0.819,0.526,1.023,0.715,0.336,0.581,0.554,�k,5.5,��
2022/10/14,17:40,0.567,0.817,0.526,1.022,0.716,0.335,0.582,0.553,�k,5.4,��
2022/10/14,17:50,0.568,0.816,0.525,1.020,0.716,0.335,0.586,0.554,�k,5.7,��
2022/10/14,18:00,0.567,0.820,0.526,1.020,0.715,0.337,0.583,0.553,�k�k��,6.5,��
2022/10/14,18:10,0.565,0.818,0.525,1.021,0.716,0.336,0.584,0.554,�k,5.7,��
2022/10/14,18:20,0.567,0.818,0.523,1.022,0.717,0.335,0.583,0.552,�k�k��,6.1,��
2022/10/14,18:30,0.567,0.816,0.526,1.022,0.715,0.334,0.583,0.551,�k�k��,5.6,��
2022/10/14,18:40,0.567,0.818,0.524,1.023,0.715,0.336,0.585,0.554,�k�k��,5.5,��
2022/10/14,18:50,0.567,0.819,0.524,1.023,0.716,0.335,0.584,0.554,�k�k��,5.1,��
2022/10/14,19:00,0.566,0.816,0.524,1.022,0.715,0.335,0.583,0.553,�k�k��,5.4,��
2022/10/14,19:10,0.568,0.816,0.525,1.023,0.714,0.337,0.585,0.552,�k�k��,5.3,��
2022/10/14,19:20,0.568,0.818,0.525,1.021,0.716,0.337,0.583,0.552,�k�k��,5.1,��
2022/10/14,19:30,0.567,0.818,0.524,1.023,0.716,0.335,0.585,0.552,�k�k��,5.7,��
2022/10/14,19:40,0.568,0.818,0.526,1.023,0.714,0.335,0.583,0.554,�k�k��,5.6,��
2022/10/14,19:50,0.567,0.819,0.525,1.021,0.715,0.337,0.582,0.554,�k�k��,5.9,��
2022/10/14,20:00,0.567,0.817,0.525,1.022,0.717,0.335,0.583,0.553,�k�k��,6.0,��
2022/10/14,20:10,0.568,0.819,0.526,1.021,0.715,0.336,0.585,0.552,�k�k��,5.8,��
2022/10/14,20:20,0.567,0.818,0.525,1.024,0.716,0.336,0.582,0.552,�k,5.6,��
2022/10/14,20:30,0.568,0.818,0.524,1.020,0.716,0.336,0.584,0.554,�k,5.8,��
2022/10/14,20:40,0.566,0.819,0.525,1.023,0.715,0.337,0.584,0.553,�k�k��,6.4,��
2022/10/14,20:50,0.569,0.818,0.525,1.022,0.716,0.337,0.583,0.553,�k�k��,6.0,��
2022/10/14,21:00,0.569,0.816,0.525,1.022,0.717,0.335,0.584,0.553,�k�k��,4.0,��
2022/10/14,21:10,0.568,0.818,0.524,1.021,0.715,0.335,0.583,0.552,�k�k��,5.6,��
2022/10/14,21:20,0.567,0.817,0.525,1.024,0.717,0.336,0.584,0.553,�k�k��,5.5,��
2022/10/14,21:30,0.567,0.819,0.525,1.024,0.715,0.336,0.583,0.554,�k�k��,5.6,��
2022/10/14,21:40,0.567,0.818,0.525,1.023,0.715,0.336,0.583,0.553,�k�k��,6.7,��
2022/10/14,21:50,0.567,0.820,0.526,1.020,0.717,0.335,0.585,0.554,�k�k��,6.1,��
2022/10/14,22:00,0.568,0.819,0.526,1.023,0.714,0.337,0.583,0.552,�k�k��,5.8,��
2022/10/14,22:10,0.568,0.816,0.525,1.024,0.714,0.336,0.585,0.553,�k�k��,6.4,��
2022/10/14,22:20,0.568,0.817,0.524,1.024,0.717,0.337,0.584,0.554,�k�k��,6.2,��
2022/10/14,22:30,0.566,0.819,0.525,1.024,0.715,0.336,0.584,0.551,�k�k��,6.4,��
2022/10/14,22:40,0.568,0.818,0.525,1.020,0.718,0.337,0.584,0.552,�k�k��,5.4,��
2022/10/14,22:50,0.567,0.817,0.527,1.022,0.716,0.336,0.584,0.553,�k�k��,5.8,��
2022/10/14,23:00,0.567,0.817,0.525,1.021,0.715,0.337,0.585,0.553,�k�k��,5.5,��
2022/10/14,23:10,0.568,0.819,0.526,1.023,0.716,0.336,0.585,0.552,�k�k��,6.2,��
2022/10/14,23:20,0.568,0.819,0.527,1.024,0.716,0.336,0.585,0.553,�k�k��,6.5,��
2022/10/14,23:30,0.570,0.819,0.526,1.023,0.716,0.334,0.584,0.552,�k�k��,6.6,��
2022/10/14,23:40,0.569,0.819,0.525,1.024,0.715,0.336,0.584,0.554,�k�k��,6.1,��
2022/10/14,23:50,0.568,0.816,0.525,1.022,0.715,0.336,0.583,0.554,�k�k��,6.3,��
